IRIDIUM 174

Last updated on Fri Sep 11 2026 00:03:06 GMT+0000 (Coordinated Universal Time)

1 56728U 23068U 26253.45229023 .00000506 00000+0 76344-4 0 9990 2 56728 86.6118 318.0654 0002705 94.1039 266.0487 14.72254590178566
UTC large
Height (km)
Speed (km/s)
/
Latitude / Longitude
Inclination (degrees)
Orbital Period (minutes)
Azimuth
Elevation
Range (km)
Doppler Factor

Next 0 passes for location: London (51.5072 / 0.1276)

No passes found over London.
IRIDIUM 174